Huron, SD

4:49 AM CDT on June 24, 2017 (GMT -0500)
Huron Regional

Weather History for KHON - March, 2012

Change the Weather History Date:

Wednesday, March 14, 2012

  Actual Average Record
Temperature  
Mean Temperature 47 °F 32 °F  
Max Temperature 59 °F 43 °F 75 °F (1935)
Min Temperature 34 °F 22 °F -25 °F (1897)
Degree Days  
Heating Degree Days 18 33  
Month to date heating degree days 377 497  
Since 1 July heating degree days 5459 6329  
Cooling Degree Days 0 0  
Month to date cooling degree days 0 0  
Year to date cooling degree days 0 0  
Moisture  
Dew Point 31 °F    
Average Humidity 55    
Maximum Humidity 82    
Minimum Humidity 28    
Precipitation  
Precipitation 0.00 in 0.05 in 1.27 in (2002)
Month to date precipitation 0.58 0.51  
Year to date precipitation 3.37 1.61  
Snow  
Snow 0.00 in 0.30 in 19.00 in (2002)
Month to date snowfall 0.1 4.6  
Since 1 July snowfall 31.4 35.6  
Snow Depth 0.00 in    
Sea Level Pressure  
Sea Level Pressure 29.85 in    
Wind  
Wind Speed 10 mph (NNE)    
Max Wind Speed 22 mph    
Max Gust Speed 28 mph    
Visibility 10 miles    
Events      
T = Trace of Precipitation, MM = Missing Value Source: NWS Daily Summary

Daily Weather History Graph

Daily Weather History Graph

Search for Another Location

Airport or City:

Trip Planner

Search our weather history database for the weather conditions in past years. The results will help you decide how hot, cold, wet, or windy it might be!

Date:

Astronomy

Mar. 14, 2012 Rise Set
Actual Time 7:46 AM CDT 7:38 PM CDT
Civil Twilight 7:17 AM CDT 8:07 PM CDT
Nautical Twilight 6:43 AM CDT 8:41 PM CDT
Astronomical Twilight 6:09 AM CDT 9:15 PM CDT
Moon 2:30 AM CDT (3/14) 11:43 AM CDT (3/14)
Length of Visible Light 12h 50m
Length of Day
11h 52m
Waning Gibbous, 54% of the Moon is Illuminated
Mar 14
Waning Gibbous
Mar 14
Last Quarter
Mar 22
New
Mar 30
First Quarter
Apr 6
Full

Hourly Weather History & Observations

Time (CDT) Temp. Windchill Dew Point Humidity Pressure Visibility Wind Dir Wind Speed Gust Speed Precip Events Conditions
12:55 AM 55.0 °F - 39.9 °F 57% 29.61 in 10.0 mi South 16.1 mph 21.9 mph N/A   Clear
1:55 AM 52.0 °F - 39.9 °F 63% 29.60 in 10.0 mi South 8.1 mph - N/A   Clear
2:55 AM 50.0 °F - 39.9 °F 68% 29.60 in 10.0 mi South 10.4 mph - N/A   Clear
3:55 AM 48.0 °F - 39.0 °F 71% 29.60 in 10.0 mi South 6.9 mph - N/A   Clear
4:55 AM 45.0 °F 42.6 °F 37.9 °F 76% 29.62 in 10.0 mi South 4.6 mph - N/A   Clear
5:55 AM 41.0 °F 35.2 °F 36.0 °F 82% 29.70 in 10.0 mi NW 9.2 mph - N/A   Clear
6:55 AM 46.9 °F - 33.1 °F 59% 29.73 in 10.0 mi NNW 18.4 mph 27.6 mph N/A   Clear
7:55 AM 45.0 °F 39.7 °F 33.1 °F 63% 29.80 in 10.0 mi NNW 10.4 mph - N/A   Clear
8:55 AM 46.9 °F - 30.9 °F 54% 29.86 in 10.0 mi North 16.1 mph - N/A   Clear
9:55 AM 48.0 °F - 30.9 °F 52% 29.89 in 10.0 mi North 13.8 mph - N/A   Clear
10:55 AM 51.1 °F - 28.9 °F 43% 29.91 in 10.0 mi North 17.3 mph 24.2 mph N/A   Clear
11:55 AM 55.0 °F - 28.0 °F 35% 29.94 in 10.0 mi North - - N/A   Clear
12:55 PM 55.0 °F - 27.0 °F 34% 29.95 in 10.0 mi North - - N/A   Clear
1:55 PM 57.0 °F - 26.1 °F 30% 29.94 in 10.0 mi North 13.8 mph 23.0 mph N/A   Clear
2:55 PM 57.9 °F - 27.0 °F 31% 29.94 in 10.0 mi North 13.8 mph 24.2 mph N/A   Clear
3:55 PM 57.9 °F - 26.1 °F 30% 29.94 in 10.0 mi North 15.0 mph 20.7 mph N/A   Clear
4:55 PM 57.9 °F - 25.0 °F 28% 29.94 in 10.0 mi North 10.4 mph - N/A   Clear
5:55 PM 57.9 °F - 27.0 °F 31% 29.93 in 10.0 mi North 10.4 mph - N/A   Clear
6:55 PM 57.0 °F - 27.0 °F 32% 29.94 in 10.0 mi North 4.6 mph - N/A   Clear
7:55 PM 50.0 °F - 28.9 °F 44% 29.95 in 10.0 mi East 3.5 mph - N/A   Clear
8:55 PM 44.1 °F 41.5 °F 30.0 °F 58% 29.96 in 10.0 mi East 4.6 mph - N/A   Clear
9:55 PM 36.0 °F - 28.9 °F 76% 30.00 in 10.0 mi Calm Calm - N/A   Clear
10:55 PM 35.1 °F - 30.0 °F 82% 30.01 in 10.0 mi Calm Calm - N/A   Clear
11:55 PM 37.0 °F 30.4 °F 30.0 °F 76% 30.01 in 10.0 mi NE 9.2 mph - N/A   Clear